Location: State Camp
(41.2367°N, 77.7828°W)
Time: 03:44:54
(UTC-05:00)

Amateur Radio Satellites - All Passes

Search period start: 11 February 2016 03:14
Search period end: 12 February 2016 03:14
Location: State Camp, 41.2367°N, 77.7828°W

Satellite Date Start Highest point End Downlink Frequencies (MHz)
Time Altitude Azimuth
AIST 2 11 Feb 03:15:53 03:19:53 46° 53° (NE) 03:23:51 435.215
KKS-1 11 Feb 03:22:36 03:26:48 41° 261° (W) 03:31:02 437.445
MOZHAYETS 4 11 Feb 03:24:23 03:28:54 76° 76° (ENE) 03:33:31
PHONESAT 2.4 11 Feb 03:34:54 03:38:11 72° 187° (S) 03:41:27 2401.200-2431.200
YUBILEINY 11 Feb 03:40:50 03:49:36 77° 278° (W) 03:58:30 435.215
DANDE 11 Feb 03:51:29 03:58:00 26° 296° (WNW) 04:04:51 436.750
Gurwin Techsat 1B 11 Feb 03:53:03 03:56:48 20° 297° (WNW) 04:00:34 435.225
CUBESAT XI-V 11 Feb 04:09:22 04:13:07 24° 67° (ENE) 04:16:53 437.345
ITAMSAT 1 11 Feb 04:23:53 04:27:31 19° 298° (WNW) 04:31:09 435.822/435.867
Cosmos 2504 11 Feb 04:27:29 04:35:41 52° 89° (E) 04:44:11 435.465 / 435.565
SO-50 11 Feb 04:27:43 04:32:28 53° 118° (ESE) 04:37:18 436.795
M-CUBED/EXP-1 PRIME 11 Feb 04:30:23 04:33:46 60° 106° (ESE) 04:37:21 437.505
AUBIESAT-1 11 Feb 04:39:01 04:42:28 63° 107° (ESE) 04:46:07 437.475
HORYU 2 11 Feb 04:40:30 04:44:57 74° 102° (ESE) 04:49:24 437.375
STARS 11 Feb 04:41:48 04:43:14 11° 270° (W) 04:44:41 437.465
Cosmos 2491 11 Feb 04:53:44 04:56:09 11° 287° (WNW) 04:58:36 435.465 / 435.565
AIST 2 11 Feb 04:55:24 04:58:00 16° 250° (WSW) 05:00:35 435.215
MOZHAYETS 4 11 Feb 05:06:13 05:06:37 10° 272° (W) 05:07:01
AO-7 11 Feb 05:06:42 05:14:44 54° 296° (WNW) 05:22:43 29.400- 29.500
PHONESAT 2.4 11 Feb 05:12:21 05:15:12 28° 204° (SSW) 05:18:03 2401.200-2431.200
STRAND 1 11 Feb 05:20:58 05:24:35 20° 63° (ENE) 05:28:13 437.568
LilacSat-2 11 Feb 05:33:32 05:35:26 13° 92° (E) 05:37:21 437.200
YUBILEINY 11 Feb 05:43:05 05:48:03 16° 301° (WNW) 05:53:03 435.215
CUBESAT XI-V 11 Feb 05:46:01 05:50:18 35° 263° (W) 05:54:39 437.345
SO-50 11 Feb 06:09:18 06:13:17 24° 316° (NW) 06:17:18 436.795
CUTE-I 11 Feb 06:09:51 06:15:02 46° 99° (E) 06:20:10 437.470
HORYU 2 11 Feb 06:19:24 06:20:54 12° 299° (WNW) 06:22:26 437.375
Cosmos 2504 11 Feb 06:21:31 06:29:19 37° 289° (WNW) 06:37:23 435.465 / 435.565
Cubesat XI-IV 11 Feb 06:23:55 06:29:16 61° 101° (ESE) 06:34:35 437.490
BRITE-PL 11 Feb 06:27:27 06:31:45 34° 96° (E) 06:35:45 437.365/2234.400
PRISM 11 Feb 06:45:07 06:48:55 35° 70° (ENE) 06:52:44 437.425
STRAND 1 11 Feb 06:58:22 07:03:21 53° 260° (W) 07:08:22 437.568
DOVE 4 11 Feb 07:01:16 07:04:11 18° 92° (E) 07:07:02 437.250
AO-7 11 Feb 07:02:30 07:05:39 13° 317° (NW) 07:08:49 29.400- 29.500
LilacSat-2 11 Feb 07:06:24 07:09:58 39° 287° (WNW) 07:13:30 437.200
O/OREOS (USA 219) 11 Feb 07:07:46 07:11:37 29° 104° (ESE) 07:15:31 437.305
GONETS M04 11 Feb 07:14:20 07:19:26 17° 77° (ENE) 07:24:32
GOMX 1 11 Feb 07:26:04 07:30:29 73° 102° (ESE) 07:34:39 467.674
CUTE 1.7 + AOD 2 11 Feb 07:37:06 07:40:10 19° 93° (E) 07:43:15 437.475
SEEDS 11 Feb 07:41:21 07:43:58 16° 92° (E) 07:46:34 437.485
CINEMA 3 11 Feb 07:45:18 07:48:13 18° 93° (E) 07:51:09 145.822/145.860
HO-68 11 Feb 07:49:25 07:55:56 35° 97° (E) 08:02:24 435.675
CUTE-I 11 Feb 07:50:33 07:54:47 24° 296° (WNW) 07:59:01 437.470
AAUSAT CUBESAT 2 11 Feb 07:52:42 07:54:27 12° 90° (E) 07:56:12 437.432
Cubesat XI-IV 11 Feb 08:05:12 08:08:50 19° 298° (WNW) 08:12:28 437.490
BRITE-PL 11 Feb 08:06:22 08:10:01 23° 295° (WNW) 08:13:28 437.365/2234.400
PRISM 11 Feb 08:21:23 08:24:21 19° 266° (W) 08:27:21 437.425
CANX-2 11 Feb 08:21:31 08:25:48 68° 101° (E) 08:30:04 2200.000
ZACube-1 11 Feb 08:32:55 08:34:01 11° 90° (E) 08:35:07 437.345
DOVE 4 11 Feb 08:38:12 08:42:04 35° 289° (WNW) 08:45:49 437.250
FUNcube-1 11 Feb 08:40:26 08:42:24 13° 91° (E) 08:44:22 145.935
O/OREOS (USA 219) 11 Feb 08:47:09 08:50:59 27° 301° (WNW) 08:54:51 437.305
ANTELSAT 11 Feb 08:48:00 08:50:59 19° 66° (ENE) 08:53:58 437.575/2403.000
TIGRISAT 11 Feb 08:54:08 08:57:19 21° 67° (ENE) 09:00:29 435.000
DELFI C3 11 Feb 08:55:02 08:56:57 13° 91° (E) 08:58:51 145.870
COMPASS 1 11 Feb 08:58:49 09:03:04 88° 103° (ESE) 09:07:18 437.405
GONETS M04 11 Feb 09:06:14 09:14:55 89° 101° (E) 09:23:42
GOMX 1 11 Feb 09:06:53 09:07:53 11° 300° (WNW) 09:08:52 467.674
Oscar 11 11 Feb 09:09:35 09:13:39 37° 98° (E) 09:17:41 145.826/435.025
CUTE 1.7 + AOD 2 11 Feb 09:12:11 09:16:08 37° 289° (WNW) 09:20:05 437.475
SEEDS 11 Feb 09:15:50 09:19:53 44° 288° (WNW) 09:23:56 437.485
UWE-3 11 Feb 09:15:52 09:19:58 49° 99° (E) 09:24:08 435.000/436.395/437.385
CUBEBUG 2 11 Feb 09:18:12 09:22:23 74° 101° (E) 09:26:41 437.445
CINEMA 3 11 Feb 09:21:44 09:25:30 34° 289° (WNW) 09:29:17 145.822/145.860
Cosmos 2499 11 Feb 09:24:00 09:32:26 56° 90° (E) 09:41:02 435.465 / 435.565
AAUSAT CUBESAT 2 11 Feb 09:26:10 09:30:17 55° 286° (WNW) 09:34:24 437.432
AO-85 11 Feb 09:28:44 09:33:33 36° 113° (ESE) 09:38:33 145.980
POLYITAN 1 11 Feb 09:35:03 09:37:27 15° 64° (ENE) 09:39:51 437.675
QB50P2 11 Feb 09:35:29 09:38:00 16° 64° (ENE) 09:40:32 145.880/145.840
HO-68 11 Feb 09:36:58 09:43:44 45° 295° (WNW) 09:50:28 435.675
UNISAT 6 11 Feb 09:38:04 09:42:21 65° 74° (ENE) 09:46:35 437.425
CANX-2 11 Feb 09:59:36 10:01:06 12° 298° (WNW) 10:02:35 2200.000
POPSAT HIP 1 11 Feb 10:03:31 10:07:10 29° 69° (ENE) 10:10:49 437.405
ZACube-1 11 Feb 10:06:31 10:10:42 63° 285° (WNW) 10:14:56 437.345
NANOSAT C BR1 11 Feb 10:07:10 10:10:52 31° 70° (ENE) 10:14:35 145.865
DUCHIFAT 1 11 Feb 10:07:56 10:11:36 30° 70° (ENE) 10:15:17 145.980
HUMSAT D 11 Feb 10:12:16 10:16:15 42° 99° (E) 10:20:15 437.325/437.525
FUNcube-1 11 Feb 10:14:50 10:18:57 53° 286° (WNW) 10:23:07 145.935
QB50P1 11 Feb 10:15:39 10:19:36 39° 71° (ENE) 10:23:33 145.935-145.965
ANTELSAT 11 Feb 10:23:25 10:27:27 38° 262° (W) 10:31:28 437.575/2403.000
50 SAT 11 Feb 10:24:40 10:25:51 11° 91° (E) 10:27:02 437.505
VELOX 1 11 Feb 10:26:15 10:27:04 10° 89° (E) 10:27:53 145.980
DELFI C3 11 Feb 10:28:13 10:32:07 48° 287° (WNW) 10:36:01 145.870
PCSat 11 Feb 10:28:50 10:34:11 67° 116° (ESE) 10:39:35 145.827
TIGRISAT 11 Feb 10:29:52 10:33:48 34° 262° (W) 10:37:44 435.000
AIST 1 11 Feb 10:36:28 10:40:53 89° 79° (E) 10:45:19
RS-15 11 Feb 10:40:24 10:50:44 48° 109° (ESE) 11:01:34 29.354- 29.394
AISAT 11 Feb 10:41:22 10:44:16 17° 93° (E) 10:47:08 437.250
UKube-1 11 Feb 10:45:46 10:48:27 16° 93° (E) 10:51:08 .
Oscar 11 11 Feb 10:46:21 10:49:31 20° 294° (WNW) 10:52:40 145.826/435.025
UWE-3 11 Feb 10:53:40 10:56:04 15° 295° (WNW) 10:58:29 435.000/436.395/437.385
CUBEBUG 1 11 Feb 10:56:16 10:59:28 20° 93° (E) 11:02:39 437.445
CUBEBUG 2 11 Feb 10:57:54 10:58:28 10° 298° (WNW) 10:59:01 437.445
DX 1 11 Feb 10:59:46 11:03:29 27° 96° (E) 11:07:10 434.975-435.025
BUGSAT 1 11 Feb 11:02:19 11:06:29 65° 75° (ENE) 11:10:37 437.445
GONETS M04 11 Feb 11:07:09 11:13:00 19° 298° (WNW) 11:18:55
ESTCUBE 1 11 Feb 11:08:27 11:12:41 37° 97° (E) 11:16:53 437.505/2401.250
POLYITAN 1 11 Feb 11:08:46 11:12:52 49° 260° (W) 11:16:59 437.675
AO-85 11 Feb 11:09:05 11:14:05 37° 311° (NW) 11:19:13 145.980
QB50P2 11 Feb 11:09:21 11:13:26 47° 261° (W) 11:17:32 145.880/145.840
Oscar 19 11 Feb 11:13:24 11:15:22 12° 59° (ENE) 11:17:19 437.125/150
Cosmos 2499 11 Feb 11:18:09 11:25:56 34° 290° (WNW) 11:33:50 435.465 / 435.565
UNISAT 6 11 Feb 11:18:35 11:19:29 11° 270° (W) 11:20:23 437.425
POPSAT HIP 1 11 Feb 11:39:31 11:42:57 24° 265° (W) 11:46:23 437.405
NANOSAT C BR1 11 Feb 11:43:20 11:46:38 22° 265° (W) 11:49:57 145.865
DUCHIFAT 1 11 Feb 11:43:59 11:47:19 22° 265° (W) 11:50:40 145.980
HUMSAT D 11 Feb 11:48:53 11:51:34 17° 294° (WNW) 11:54:17 437.325/437.525
QB50P1 11 Feb 11:52:44 11:55:32 17° 267° (W) 11:58:22 145.935-145.965
50 SAT 11 Feb 11:56:27 12:00:09 49° 287° (WNW) 12:03:50 437.505
Gurwin Techsat 1B 11 Feb 11:57:15 11:59:16 12° 58° (ENE) 12:01:16 435.225
VELOX 1 11 Feb 11:59:36 12:04:01 70° 286° (WNW) 12:08:23 145.980
YUBILEINY 11 Feb 12:00:21 12:00:37 10° 53° (NE) 12:00:53 435.215
CUSAT 1 11 Feb 12:03:13 12:08:31 36° 70° (ENE) 12:12:35 437.405
PCSat 11 Feb 12:14:01 12:18:05 21° 315° (NW) 12:22:10 145.827
AISAT 11 Feb 12:16:47 12:20:58 43° 289° (WNW) 12:25:06 437.250
UKube-1 11 Feb 12:20:37 12:24:44 44° 288° (WNW) 12:28:49 .
ITAMSAT 1 11 Feb 12:26:03 12:27:46 12° 58° (ENE) 12:29:30 435.822/435.867
SPROUT 11 Feb 12:26:53 12:31:10 72° 102° (ESE) 12:35:24 437.525
AO-7 11 Feb 12:28:12 12:30:11 11° 41° (NE) 12:32:10 29.400- 29.500
JAS-2 11 Feb 12:29:02 12:36:20 52° 70° (ENE) 12:43:00 435.910
TISAT 1 11 Feb 12:30:06 12:33:40 27° 96° (E) 12:37:13 437.305
CUBEBUG 1 11 Feb 12:31:53 12:35:53 36° 290° (WNW) 12:39:50 437.445
DX 1 11 Feb 12:35:57 12:39:36 27° 292° (WNW) 12:43:14 434.975-435.025
BUGSAT 1 11 Feb 12:41:41 12:42:16 10° 270° (W) 12:42:52 437.445
ESTCUBE 1 11 Feb 12:45:48 12:49:16 22° 294° (WNW) 12:52:42 437.505/2401.250
Oscar 19 11 Feb 12:48:43 12:53:54 90° 79° (E) 12:59:07 437.125/150
DANDE 11 Feb 12:49:29 12:56:21 58° 75° (ENE) 13:01:29 436.750
RS-15 11 Feb 12:52:03 13:02:59 55° 313° (NW) 13:14:33 29.354- 29.394
SO-50 11 Feb 12:59:23 13:04:04 47° 52° (NE) 13:08:35 436.795
SWISSCUBE 11 Feb 13:17:32 13:20:55 19° 93° (E) 13:24:17 437.505
Gurwin Techsat 1B 11 Feb 13:33:04 13:38:23 87° 77° (ENE) 13:43:44 435.225
CUSAT 1 11 Feb 13:46:11 13:50:20 22° 277° (W) 13:53:43 437.405
YUBILEINY 11 Feb 13:51:10 13:59:49 55° 76° (ENE) 14:08:23 435.215
ITUPSAT 1 11 Feb 13:54:25 13:58:57 39° 98° (E) 14:03:27 437.325
Cosmos 2491 11 Feb 13:58:22 14:05:34 30° 83° (E) 14:12:44 435.465 / 435.565
ITAMSAT 1 11 Feb 14:01:13 14:06:25 85° 76° (ENE) 14:11:39 435.822/435.867
BEESAT 11 Feb 14:01:40 14:06:19 47° 100° (E) 14:10:55 436.000
SPROUT 11 Feb 14:05:26 14:06:32 11° 298° (WNW) 14:07:38 437.525
TISAT 1 11 Feb 14:05:51 14:09:15 25° 292° (WNW) 14:12:39 437.305
AO-7 11 Feb 14:13:01 14:20:54 48° 63° (ENE) 14:28:48 29.400- 29.500
JAS-2 11 Feb 14:14:48 14:21:27 32° 265° (W) 14:27:39 435.910
Cosmos 2504 11 Feb 14:21:47 14:27:28 19° 61° (ENE) 14:32:56 435.465 / 435.565
Oscar 19 11 Feb 14:33:17 14:33:54 10° 272° (W) 14:34:31 437.125/150
DANDE 11 Feb 14:33:46 14:38:21 20° 280° (W) 14:42:12 436.750
ISS 11 Feb 14:34:25 14:37:08 25° 135° (SE) 14:39:51 145.825
SO-50 11 Feb 14:40:40 14:44:12 21° 250° (WSW) 14:47:39 436.795
STARS 11 Feb 14:53:54 14:55:19 11° 90° (E) 14:56:44 437.465
SWISSCUBE 11 Feb 14:54:20 14:58:57 46° 289° (WNW) 15:03:31 437.505
RS-15 11 Feb 15:10:03 15:18:59 24° 345° (NNW) 15:28:17 29.354- 29.394
KKS-1 11 Feb 15:13:26 15:17:32 36° 98° (E) 15:21:36 437.445
Gurwin Techsat 1B 11 Feb 15:17:32 15:19:00 11° 272° (W) 15:20:28 435.225
M-CUBED/EXP-1 PRIME 11 Feb 15:17:46 15:21:24 84° 71° (ENE) 15:24:48 437.505
MOZHAYETS 4 11 Feb 15:20:22 15:23:34 18° 92° (E) 15:26:45
AUBIESAT-1 11 Feb 15:25:58 15:29:34 86° 71° (ENE) 15:32:59 437.475
ITUPSAT 1 11 Feb 15:32:47 15:36:32 23° 295° (WNW) 15:40:18 437.325
HORYU 2 11 Feb 15:38:20 15:42:43 68° 74° (ENE) 15:47:07 437.375
BEESAT 11 Feb 15:40:21 15:43:45 20° 296° (WNW) 15:47:08 436.000
ITAMSAT 1 11 Feb 15:45:09 15:46:32 11° 271° (W) 15:47:56 435.822/435.867
YUBILEINY 11 Feb 15:48:37 15:56:10 33° 276° (W) 16:03:40 435.215
Cosmos 2491 11 Feb 15:53:17 16:01:50 58° 283° (WNW) 16:10:25 435.465 / 435.565
CUTE-I 11 Feb 15:57:02 15:57:50 10° 56° (NE) 15:58:38 437.470
AO-7 11 Feb 16:06:02 16:13:44 40° 261° (W) 16:21:29 29.400- 29.500
Cubesat XI-IV 11 Feb 16:09:18 16:11:57 14° 59° (ENE) 16:14:35 437.490
ISS 11 Feb 16:10:23 16:13:27 39° 331° (NNW) 16:16:33 145.825
Cosmos 2504 11 Feb 16:13:34 16:22:14 89° 81° (E) 16:30:15 435.465 / 435.565
BEESAT 3 11 Feb 16:14:11 16:17:44 32° 115° (ESE) 16:21:18 437.485
STARS 11 Feb 16:27:46 16:32:06 63° 286° (WNW) 16:36:24 437.465
BEESAT 2 11 Feb 16:41:28 16:45:15 40° 117° (ESE) 16:49:03 435.950
KKS-1 11 Feb 16:50:31 16:53:52 21° 294° (WNW) 16:57:13 437.445
MOZHAYETS 4 11 Feb 16:56:31 17:00:57 45° 288° (WNW) 17:05:21
GOMX 1 11 Feb 16:59:43 17:00:55 11° 60° (ENE) 17:02:05 467.674
O/OREOS (USA 219) 11 Feb 17:16:59 17:21:32 58° 65° (ENE) 17:26:03 437.305
HORYU 2 11 Feb 17:18:38 17:19:44 11° 270° (W) 17:20:50 437.375
RS-15 11 Feb 17:27:30 17:37:07 27° 21° (NNE) 17:46:56 29.354- 29.394
CUTE-I 11 Feb 17:31:38 17:36:56 74° 74° (ENE) 17:42:17 437.470
PCSat 11 Feb 17:36:00 17:37:22 11° 35° (NE) 17:38:45 145.827
BRITE-PL 11 Feb 17:36:41 17:42:05 46° 71° (ENE) 17:47:20 437.365/2234.400
CUBESAT XI-V 11 Feb 17:42:07 17:46:46 57° 100° (E) 17:51:21 437.345
Cubesat XI-IV 11 Feb 17:45:58 17:51:17 83° 258° (WSW) 17:56:40 437.490
LilacSat-2 11 Feb 17:47:55 17:51:44 86° 252° (WSW) 17:55:34 437.200
ISS 11 Feb 17:48:39 17:50:35 15° 351° (N) 17:52:31 145.825
BEESAT 3 11 Feb 17:52:12 17:55:31 24° 312° (NW) 17:58:50 437.485
Cosmos 2491 11 Feb 17:58:53 18:00:52 11° 306° (NW) 18:02:52 435.465 / 435.565
AO-85 11 Feb 18:00:50 18:05:30 32° 46° (NE) 18:09:50 145.980
DOVE 4 11 Feb 18:06:07 18:10:03 23° 68° (ENE) 18:13:48 437.250
Cosmos 2504 11 Feb 18:09:09 18:14:14 18° 284° (WNW) 18:19:08 435.465 / 435.565
HO-68 11 Feb 18:18:41 18:24:30 28° 60° (ENE) 18:30:21 435.675
BEESAT 2 11 Feb 18:20:13 18:23:18 21° 314° (NW) 18:26:24 435.950
CUTE 1.7 + AOD 2 11 Feb 18:30:50 18:33:05 14° 64° (ENE) 18:35:20 437.475
GOMX 1 11 Feb 18:32:49 18:38:13 79° 76° (ENE) 18:43:23 467.674
SEEDS 11 Feb 18:34:38 18:36:06 12° 63° (ENE) 18:37:34 437.485
CINEMA 3 11 Feb 18:47:06 18:50:21 20° 67° (ENE) 18:53:29 145.822/145.860
AIST 2 11 Feb 18:51:16 18:55:26 81° 304° (NW) 18:59:37 435.215
O/OREOS (USA 219) 11 Feb 18:58:05 19:00:24 14° 262° (W) 19:02:43 437.305
STRAND 1 11 Feb 19:08:43 19:13:46 52° 100° (E) 19:18:47 437.568
CANX-2 11 Feb 19:14:09 19:18:11 46° 73° (ENE) 19:22:15 2200.000
CUTE-I 11 Feb 19:14:57 19:17:32 14° 270° (W) 19:20:09 437.470
BRITE-PL 11 Feb 19:16:04 19:20:40 25° 267° (W) 19:25:13 437.365/2234.400
GONETS M04 11 Feb 19:16:38 19:25:00 45° 74° (ENE) 19:33:20
PCSat 11 Feb 19:16:44 19:22:04 53° 56° (NE) 19:27:21 145.827
Cosmos 2499 11 Feb 19:17:13 19:22:53 19° 61° (ENE) 19:28:16 435.465 / 435.565
CUBESAT XI-V 11 Feb 19:20:51 19:23:40 16° 297° (WNW) 19:26:28 437.345
ISS 11 Feb 19:26:00 19:28:02 15° 11° (NNE) 19:30:03 145.825
FUNcube-1 11 Feb 19:37:44 19:38:36 11° 62° (ENE) 19:39:30 145.935
RS-15 11 Feb 19:40:42 19:52:45 62° 50° (NE) 20:04:57 29.354- 29.394
AO-85 11 Feb 19:41:26 19:46:03 36° 247° (WSW) 19:50:17 145.980
DOVE 4 11 Feb 19:42:45 19:47:32 40° 262° (W) 19:52:05 437.250
COMPASS 1 11 Feb 19:49:24 19:53:27 57° 74° (ENE) 19:57:33 437.405
PRISM 11 Feb 20:01:42 20:05:50 57° 101° (E) 20:09:54 437.425
CUTE 1.7 + AOD 2 11 Feb 20:04:24 20:08:29 52° 261° (W) 20:12:38 437.475
Oscar 11 11 Feb 20:04:27 20:08:09 29° 69° (ENE) 20:11:53 145.826/435.025
HO-68 11 Feb 20:04:40 20:11:44 61° 258° (WSW) 20:18:52 435.675
SEEDS 11 Feb 20:07:07 20:11:16 65° 259° (W) 20:15:27 437.485
UWE-3 11 Feb 20:12:58 20:16:55 39° 72° (ENE) 20:20:49 435.000/436.395/437.385
GOMX 1 11 Feb 20:14:25 20:16:44 13° 271° (W) 20:19:02 467.674
AAUSAT CUBESAT 2 11 Feb 20:16:02 20:20:10 86° 257° (WSW) 20:24:22 437.432
CUBEBUG 2 11 Feb 20:16:11 20:20:26 60° 75° (ENE) 20:24:35 437.445
CINEMA 3 11 Feb 20:22:54 20:27:14 40° 262° (W) 20:31:25 145.822/145.860
AIST 2 11 Feb 20:33:06 20:34:37 12° 322° (NW) 20:36:09 435.215
AIST 1 11 Feb 20:44:16 20:47:39 22° 73° (ENE) 20:50:59
STRAND 1 11 Feb 20:48:51 20:52:32 20° 297° (WNW) 20:56:13 437.568
CANX-2 11 Feb 20:51:59 20:54:19 14° 269° (W) 20:56:39 2200.000
PCSat 11 Feb 21:00:59 21:05:03 22° 254° (WSW) 21:09:07 145.827
ISS 11 Feb 21:01:57 21:05:05 46° 30° (NNE) 21:08:14 145.825
ZACube-1 11 Feb 21:02:07 21:06:19 82° 256° (WSW) 21:10:30 437.345
HUMSAT D 11 Feb 21:03:56 21:07:26 29° 70° (ENE) 21:10:58 437.325/437.525
Cosmos 2499 11 Feb 21:08:52 21:17:16 86° 265° (W) 21:24:59 435.465 / 435.565
FUNcube-1 11 Feb 21:10:08 21:14:18 70° 258° (WSW) 21:18:27 145.935
GONETS M04 11 Feb 21:13:42 21:21:40 40° 274° (W) 21:29:40
DELFI C3 11 Feb 21:14:00 21:17:59 85° 259° (WSW) 21:22:00 145.870
VELOX 1 11 Feb 21:24:02 21:25:11 11° 60° (ENE) 21:26:20 145.980
COMPASS 1 11 Feb 21:27:59 21:29:24 11° 270° (W) 21:30:49 437.405
UNISAT 6 11 Feb 21:31:14 21:33:22 13° 91° (E) 21:35:31 437.425
PRISM 11 Feb 21:38:45 21:40:40 13° 298° (WNW) 21:42:35 437.425
AISAT 11 Feb 21:39:13 21:42:02 17° 64° (ENE) 21:44:53 437.250
Oscar 11 11 Feb 21:40:47 21:44:16 24° 265° (W) 21:47:48 145.826/435.025
UKube-1 11 Feb 21:40:56 21:43:23 15° 63° (ENE) 21:45:51 .
UWE-3 11 Feb 21:50:45 21:53:32 17° 267° (W) 21:56:18 435.000/436.395/437.385
CUBEBUG 1 11 Feb 21:52:37 21:55:37 18° 65° (ENE) 21:58:37 437.445
RS-15 11 Feb 21:53:44 22:04:49 43° 252° (WSW) 22:15:59 29.354- 29.394
DX 1 11 Feb 21:55:25 21:58:58 25° 67° (ENE) 22:02:32 434.975-435.025
CUBEBUG 2 11 Feb 21:56:05 21:57:25 11° 270° (W) 21:58:45 437.445
ESTCUBE 1 11 Feb 22:07:56 22:12:01 35° 70° (ENE) 22:16:09 437.505/2401.250
ANTELSAT 11 Feb 22:14:36 22:18:43 39° 98° (E) 22:22:54 437.575/2403.000
TIGRISAT 11 Feb 22:20:42 22:24:52 44° 99° (E) 22:29:06 435.000
AIST 1 11 Feb 22:21:28 22:25:16 30° 270° (W) 22:29:02
50 SAT 11 Feb 22:36:16 22:39:57 76° 76° (ENE) 22:43:41 437.505
ISS 11 Feb 22:38:51 22:41:20 20° 227° (SW) 22:43:47 145.825
HUMSAT D 11 Feb 22:39:54 22:43:05 22° 266° (W) 22:46:17 437.325/437.525
POLYITAN 1 11 Feb 22:54:06 22:57:37 25° 96° (E) 23:01:06 437.675
QB50P2 11 Feb 22:54:36 22:58:11 26° 96° (E) 23:01:43 145.880/145.840
VELOX 1 11 Feb 22:56:32 23:01:00 80° 258° (WSW) 23:05:30 145.980
Cosmos 2499 11 Feb 23:04:33 23:08:55 16° 285° (WNW) 23:13:08 435.465 / 435.565
UNISAT 6 11 Feb 23:06:08 23:10:23 55° 287° (WNW) 23:14:44 437.425
AISAT 11 Feb 23:13:49 23:18:09 49° 260° (W) 23:22:30 437.250
UKube-1 11 Feb 23:14:46 23:19:00 53° 260° (W) 23:23:16 .
SPROUT 11 Feb 23:20:21 23:24:32 54° 73° (ENE) 23:28:44 437.525
TISAT 1 11 Feb 23:22:13 23:25:25 21° 67° (ENE) 23:28:37 437.305
POPSAT HIP 1 11 Feb 23:23:23 23:27:31 52° 100° (E) 23:31:37 437.405
NANOSAT C BR1 11 Feb 23:26:43 23:30:51 56° 101° (E) 23:34:57 145.865
PHONESAT 2.4 11 Feb 23:27:08 23:29:22 17° 151° (SSE) 23:31:36 2401.200-2431.200
DUCHIFAT 1 11 Feb 23:27:10 23:31:17 54° 100° (E) 23:35:22 145.980
CUBEBUG 1 11 Feb 23:27:20 23:31:34 44° 261° (W) 23:35:50 437.445
DX 1 11 Feb 23:31:10 23:35:01 30° 263° (W) 23:38:55 434.975-435.025
QB50P1 11 Feb 23:35:46 23:39:59 75° 101° (E) 23:44:11 145.935-145.965
ESTCUBE 1 11 Feb 23:45:20 23:48:53 22° 266° (W) 23:52:29 437.505/2401.250
ANTELSAT 11 Feb 23:52:04 23:55:10 19° 294° (WNW) 23:58:19 437.575/2403.000
TIGRISAT 11 Feb 23:58:22 00:01:15 18° 295° (WNW) 00:04:09 435.000
Cosmos 2491 12 Feb 00:09:05 00:13:29 14° 58° (ENE) 00:17:52 435.465 / 435.565
DANDE 12 Feb 00:16:34 00:20:36 15° 77° (ENE) 00:24:43 436.750
BUGSAT 1 12 Feb 00:19:33 00:23:35 71° 284° (WNW) 00:27:33 437.445
SWISSCUBE 12 Feb 00:24:05 00:27:45 23° 65° (ENE) 00:31:27 437.505
POLYITAN 1 12 Feb 00:29:50 00:33:23 27° 291° (WNW) 00:36:55 437.675
QB50P2 12 Feb 00:30:25 00:33:55 26° 292° (WNW) 00:37:24 145.880/145.840
BEESAT 3 12 Feb 00:31:52 00:34:59 21° 46° (NE) 00:38:04 437.485
TISAT 1 12 Feb 00:57:05 01:00:53 33° 262° (W) 01:04:43 437.305
SPROUT 12 Feb 00:58:48 01:00:50 13° 269° (W) 01:02:52 437.525
BEESAT 2 12 Feb 00:59:56 01:03:21 26° 48° (NE) 01:06:43 435.950
POPSAT HIP 1 12 Feb 01:00:41 01:02:52 14° 296° (WNW) 01:05:03 437.405
Oscar 19 12 Feb 01:00:41 01:05:14 31° 96° (E) 01:09:45 437.125/150
ITUPSAT 1 12 Feb 01:01:04 01:05:35 45° 71° (ENE) 01:10:10 437.325
CUSAT 1 12 Feb 01:02:32 01:10:14 53° 92° (E) 01:17:52 437.405
PHONESAT 2.4 12 Feb 01:03:00 01:06:14 55° 166° (SSE) 01:09:27 2401.200-2431.200
NANOSAT C BR1 12 Feb 01:04:09 01:06:07 13° 297° (WNW) 01:08:05 145.865
DUCHIFAT 1 12 Feb 01:04:28 01:06:32 14° 296° (WNW) 01:08:36 145.980
YUBILEINY 12 Feb 01:04:34 01:05:20 10° 71° (ENE) 01:06:05 435.215
BEESAT 12 Feb 01:07:55 01:12:33 54° 72° (ENE) 01:17:13 436.000
QB50P1 12 Feb 01:14:39 01:15:09 10° 299° (WNW) 01:15:39 145.935-145.965
JAS-2 12 Feb 01:24:34 01:29:40 36° 96° (E) 01:34:26 435.910
Gurwin Techsat 1B 12 Feb 01:49:35 01:54:26 34° 97° (E) 01:59:14 435.225
STARS 12 Feb 01:51:14 01:52:41 11° 61° (ENE) 01:54:09 437.465
DANDE 12 Feb 01:54:14 02:02:03 72° 95° (E) 02:10:31 436.750
SWISSCUBE 12 Feb 02:00:51 02:05:18 40° 262° (W) 02:09:49 437.505
Cosmos 2491 12 Feb 02:03:18 02:12:04 72° 80° (E) 02:20:51 435.465 / 435.565
BEESAT 3 12 Feb 02:09:11 02:12:51 37° 244° (WSW) 02:16:29 437.485
KKS-1 12 Feb 02:11:27 02:15:27 34° 70° (ENE) 02:19:28 437.445
ITAMSAT 1 12 Feb 02:14:28 02:19:04 30° 96° (E) 02:23:38 435.822/435.867
AO-7 12 Feb 02:17:41 02:20:51 12° 87° (E) 02:24:01 29.400- 29.500
MOZHAYETS 4 12 Feb 02:22:41 02:25:44 18° 64° (ENE) 02:28:48
BEESAT 2 12 Feb 02:37:45 02:41:13 29° 246° (WSW) 02:44:39 435.950
Oscar 19 12 Feb 02:40:01 02:44:30 31° 293° (WNW) 02:48:58 437.125/150
PHONESAT 2.4 12 Feb 02:40:08 02:43:25 79° 184° (S) 02:46:41 2401.200-2431.200
ITUPSAT 1 12 Feb 02:40:18 02:43:39 19° 267° (W) 02:47:02 437.325
CUSAT 1 12 Feb 02:45:23 02:52:42 37° 289° (WNW) 02:59:54 437.405
BEESAT 12 Feb 02:47:49 02:50:40 16° 268° (W) 02:53:32 436.000
YUBILEINY 12 Feb 02:51:34 03:00:10 63° 91° (E) 03:08:50 435.215
Cosmos 2504 12 Feb 03:02:21 03:06:39 15° 74° (ENE) 03:11:00 435.465 / 435.565
